Shirley, NY

7:48 AM EDT on June 28, 2017 (GMT -0400)
Brookhaven

Weather History for KHWV - July, 2012

Change the Weather History Date:

Saturday, July 21, 2012

  Actual Average (KISP) Record (KISP)
Temperature  
Mean Temperature 67 °F -  
Max Temperature 75 °F 79 °F 101 °F (1991)
Min Temperature 59 °F 64 °F 58 °F (2001)
Cooling Degree Days 2    
Growing Degree Days 17 (Base 50)    
Moisture  
Dew Point 59 °F    
Average Humidity 75    
Maximum Humidity 93    
Minimum Humidity 57    
Precipitation  
Precipitation 0.00 in - - ()
Sea Level Pressure  
Sea Level Pressure 30.09 in    
Wind  
Wind Speed 2 mph (ESE)    
Max Wind Speed 12 mph    
Max Gust Speed -    
Visibility 10 miles    
Events      
Averages and records for this station are not official NWS values.
T = Trace of Precipitation, MM = Missing Value Source: NWS Daily Summary

Daily Weather History Graph

Daily Weather History Graph

Search for Another Location

Airport or City:

Trip Planner

Search our weather history database for the weather conditions in past years. The results will help you decide how hot, cold, wet, or windy it might be!

Date:

Astronomy

Jul. 21, 2012 Rise Set
Actual Time 5:38 AM EDT 8:17 PM EDT
Civil Twilight 5:06 AM EDT 8:48 PM EDT
Nautical Twilight 4:26 AM EDT 9:28 PM EDT
Astronomical Twilight 3:41 AM EDT 10:13 PM EDT
Moon 8:17 AM EDT (7/21) 9:25 PM EDT (7/21)
Length of Visible Light 15h 42m
Length of Day
14h 38m
Waxing Crescent, 7% of the Moon is Illuminated
Jul 21
Waxing Crescent
Jul 26
First Quarter
Aug 1
Full
Aug 9
Last Quarter
Aug 17
New

Hourly Weather History & Observations

Time (EDT) Temp. Dew Point Humidity Pressure Visibility Wind Dir Wind Speed Gust Speed Precip Events Conditions
12:56 AM 62.1 °F 59.0 °F 90% 30.06 in 10.0 mi Calm Calm - N/A   Overcast
1:56 AM 61.0 °F 57.9 °F 90% 30.05 in 10.0 mi Calm Calm - N/A   Scattered Clouds
2:56 AM 61.0 °F 57.9 °F 90% 30.05 in 10.0 mi Calm Calm - N/A   Clear
3:56 AM 60.1 °F 57.9 °F 93% 30.04 in 10.0 mi Calm Calm - N/A   Clear
4:56 AM 59.0 °F 57.0 °F 93% 30.06 in 10.0 mi Calm Calm - N/A   Clear
5:56 AM 59.0 °F 57.0 °F 93% 30.07 in 10.0 mi North 3.5 mph - N/A   Partly Cloudy
6:56 AM 63.0 °F 60.1 °F 90% 30.07 in 10.0 mi Calm Calm - N/A   Clear
7:56 AM 64.9 °F 62.1 °F 90% 30.09 in 10.0 mi NNE 4.6 mph - N/A   Clear
8:56 AM 69.1 °F 61.0 °F 75% 30.08 in 10.0 mi NNE 8.1 mph - N/A   Clear
9:56 AM 71.1 °F 59.0 °F 66% 30.09 in 10.0 mi Variable 4.6 mph - N/A   Clear
10:56 AM 73.0 °F 57.9 °F 59% 30.09 in 10.0 mi Variable 4.6 mph - N/A   Partly Cloudy
11:56 AM 73.0 °F 57.0 °F 57% 30.09 in 10.0 mi Variable 4.6 mph - N/A   Mostly Cloudy
12:56 PM 73.9 °F 60.1 °F 62% 30.10 in 10.0 mi Variable 4.6 mph - N/A   Overcast
1:56 PM 73.0 °F 60.1 °F 64% 30.10 in 10.0 mi Calm Calm - N/A   Overcast
2:56 PM 75.0 °F 60.1 °F 60% 30.10 in 10.0 mi SSE 11.5 mph - N/A   Partly Cloudy
3:56 PM 73.9 °F 60.1 °F 62% 30.09 in 10.0 mi SE 5.8 mph - N/A   Clear
4:56 PM 75.0 °F 59.0 °F 57% 30.09 in 10.0 mi SSE 6.9 mph - N/A   Clear
5:56 PM 73.0 °F 57.9 °F 59% 30.09 in 10.0 mi SSE 9.2 mph - N/A   Clear
6:56 PM 72.0 °F 55.9 °F 57% 30.10 in 10.0 mi Variable 4.6 mph - N/A   Clear
7:56 PM 69.1 °F 57.9 °F 68% 30.10 in 10.0 mi Calm Calm - N/A   Clear
8:56 PM 66.0 °F 59.0 °F 78% 30.11 in 10.0 mi SE 3.5 mph - N/A   Clear
9:56 PM 63.0 °F 59.0 °F 87% 30.13 in 10.0 mi Calm Calm - N/A   Clear
10:56 PM 61.0 °F 57.9 °F 90% 30.14 in 10.0 mi Calm Calm - N/A   Clear